Air Resources Laboratory banner image
Air Resources Laboratory web site National Oceanic and Atmospheric Administration (NOAA)

dc roundup


Office: AKQ

ASUS41 KAKQ 102311
RWRAKQ

REGIONAL WEATHER ROUNDUP
NATIONAL WEATHER SERVICE WAKEFIELD VA
700 PM EDT WED AUG 10 2022

Note: "fair" indicates few or no clouds below 12,000 feet with no
significant weather and/or obstructions to visibility. * = Denotes
station may not report precipitation (e.g., rain,snow,etc.),
thunder or fog.

VAZ042-051-052>054-056-110000-
NORTHERN VIRGINIA

CITY           SKY/WX    TMP DP  RH WIND       PRES   REMARKS
WASH NATIONAL  TSTM      76  73  91 S8        30.05R
DULLES         TSTM      73  71  93 S6        30.04R FOG
FORT BELVOIR   TSTM      73  72  94 CALM      30.03
QUANTICO       TSTM      76  70  82 S6        30.05S
FREDERICKSBRG* RAIN      72  72 100 E5        30.02F
STAFFORD*      RAIN      72  69  91 CALM      30.08S
WARRENTON      TSTM      72  69  91 SW3       30.02R
CULPEPER*      TSTM      72  71  95 CALM      30.06R
MANASSAS*      RAIN      72  70  93 S5        30.05R
LEESBURG*      TSTM      73  72  94 S5        30.06R
WINCHESTER     PTSUNNY   70  70 100 CALM      30.04R
FRONT ROYAL*   FAIR      73  72  94 S5        30.04R
LURAY*         FAIR      72  70  94 CALM      30.06S
$$

VAZ048-049-060>072-079>083-110000-
CENTRAL AND SOUTH CENTRAL VIRGINIA

CITY           SKY/WX    TMP DP  RH WIND       PRES   REMARKS
RICHMOND       TSTM      73  70  90 W8        30.11  VSB 1
CHESTERFIELD*  TSTM      72 N/A N/A E10       30.10F
PETERSBURG*    HVY RAIN  73  71  93 NE6       30.11R
HANOVER        TSTM      72  72 100 CALM      30.07F FOG
TAPPAHANNOCK*  LGT RAIN  76  76 100 NW8       30.07R
QUINTON*       PTSUNNY   77  74  88 W3        30.08R
CHARLOTTSVILLE LGT RAIN  77  70  78 N5        30.04R
GORDONSVILLE*  FAIR      74  72  93 CALM      30.05R
ORANGE*        TSTM      72  72 100 CALM      30.06S
LOUISA*        PTSUNNY   70 N/A N/A E3        30.05R
BUMPASS*       NOT AVBL
FARMVILLE*     PTSUNNY   83  73  72 CALM      29.99F
CREWE*         FAIR      73  70  91 CALM      30.03R
FORT PICKETT*  FAIR      75  74  99 CALM      30.04F
CHASE CITY*    FAIR      75  71  85 CALM      30.04R
CLARKSVILLE*   FAIR      73  73 100 N3        30.03R
SOUTH HILL*    NOT AVBL
LAWRENCEVILLE* FAIR      78  71  79 NW6       30.03R
EMPORIA*       PTSUNNY   81  70  70 NW12G22   30.05R THUNDER
$$

VAZ088>098-110000-
SOUTHEAST VIRGINIA

CITY           SKY/WX    TMP DP  RH WIND       PRES   REMARKS
NORFOLK        RAIN      76  72  87 SW6       30.03R
VIRGINIA BEACH TSTM      74  71  91 W10       30.01
NORFOLK NAVAL  PTSUNNY   76  72  87 SW8       30.05R THUNDER
WEST POINT*    NOT AVBL
SALUDA*          N/A    N/A N/A N/A MISG        N/A
NEWPORT NEWS   LGT RAIN  75  73  93 S5        30.03R
LANGLEY AFB    DRIZZLE   77  76  99 SW7       30.02
FORT EUSTIS    LGT RAIN  77  72  83 S3        30.01R
WILLIAMSBURG*  NOT AVBL
HR EXEC AP*    TSTM     N/A N/A N/A SW6       30.03F
FRANKLIN*      TSTM      76  66  71 CALM      30.01F
US460-WAKEFLD  PTSUNNY   75  72  90 W5        30.06R
$$

VAZ020-022-025-037-045-110000-
WEST CENTRAL AND SOUTHWEST VIRGINIA

CITY           SKY/WX    TMP DP  RH WIND       PRES   REMARKS
STAUNTON*      PTSUNNY   69  68  98 S3        30.09S
WAYNESBORO*    FAIR      69  69 100 MISG      30.09R
HOT SPRINGS VA CLOUDY   N/A N/A N/A N7        30.20F FOG
LYNCHBURG      MOSUNNY   83  71  67 W5        30.03F
DANVILLE       MOSUNNY   75  72  90 SW5       30.04F
SOUTH BOSTON*  FAIR      75  71  88 SE3       30.04S
MARTINSVILLE   MOSUNNY   81  72  74 W6        30.08F
ROANOKE        MOSUNNY   81  72  74 W6        30.07F
BLACKSBURG     MOSUNNY   77  75  92 CALM      30.15F
DUBLIN*        MOSUNNY   77  70  78 W8        30.14F
MARION*        TSTM      66  64  94 W16G24    30.23R
HILLSVILLE*    NOT AVBL
RICHLANDS*     NOT AVBL
WISE*          RAIN      64  64 100 SW6       30.23F
ABINGDON*      NOT AVBL
$$

MDZ021>025-VAZ099-100-110000-
SOUTHERN MARYLAND AND THE DELMARVA PENINSULA

CITY           SKY/WX    TMP DP  RH WIND       PRES   REMARKS
PATUXENT RIVER TSTM      78  69  73 W25G43    30.05
BAY BRIDGE APT NOT AVBL
LEONARDTOWN    CLOUDY    77  70  78 W18G31    30.10R
DOVER          LGT RAIN  81  75  83 S6        29.98R
GEORGETOWN     PTSUNNY   86  75  69 S5        29.99R HX  95
EASTON         PTSUNNY   79  70  73 CALM      30.05R
CAMBRIDGE      NOT AVBL
SALISBURY      PTSUNNY   86  75  69 S7        29.99R HX  95
TANGIER        NOT AVBL
OCEAN CITY     NOT AVBL
WALLOPS ISLAND PTSUNNY   83  75  77 SW3       30.01R
ACCOMACK*      NOT AVBL
$$

NCZ012>017-030>032-110000-
NORTH CENTRAL AND EASTERN NORTH CAROLINA

CITY           SKY/WX    TMP DP  RH WIND       PRES   REMARKS
ROANOKE RAPIDS PTSUNNY   86  77  74 W13G20    30.01R HX  97
RALEIGH        CLOUDY    83  72  69 CALM      30.04R
ELIZABETH CITY PTSUNNY   80  69  69 NW17      30.03S
AHOSKIE*       PTSUNNY   85  69  58 NE13G20   30.02R
EDENTON*       PTSUNNY   89  76  65 NE10G17   30.04R HX  99
CURRITUCK*     PTSUNNY   78  68  72 W5        30.01F
KILL DEVIL HLS LGT RAIN  76  71  85 NE6       30.02R
MANTEO         CLOUDY    84  75  74 NE9       30.03R
CAPE HATTERAS  SUNNY     83  78  85 SW13      30.04S
TARBORO*       FAIR      90  71  53 SW3       29.99S HX  96
GOLDSBORO      PTSUNNY   93  63  36 S15       29.99S
WASHINGTON     MOSUNNY   91  66  43 S3        30.01S
GREENVILLE     PTSUNNY   91  68  46 SW5       30.00R HX  95
NEW BERN       SUNNY     89  74  60 SW9G17    30.03S HX  98
WILMINGTON     SUNNY     90  72  55 SW15G21   30.06R HX  97
$$

VAZ048-110000-
ELSEWHERE

CITY           SKY/WX    TMP DP  RH WIND       PRES   REMARKS
HARRISBURG PA  PTSUNNY   84  66  54 W6        29.98S
BALTIMORE      TSTM      73  70  90 SW10      30.01S FOG
ANNAPOLIS      LGT RAIN  74  69  85 VRB3      30.00
ANDREWS AFB    TSTM      72  71  97 S8        30.02F
PHILADELPHIA   PTSUNNY   89  69  51 SW7       29.97S
HENDERSON NC   PTSUNNY   75  69  79 CALM      30.05R
GREENSBORO     PTSUNNY   83  71  67 W12       30.07F THUNDER
ROCKY MOUNT    PTSUNNY   92  67  43 SW6       30.01R THUNDER HX  95
$$

VAZ100-110000-
MARINE

STATION/POSITION TIME  TEMP    WIND        PRES    WAVE   SWELL
                       AIR SEA DIR/SP/G            HT/PER HT/PER
                 (UTC) (F)     (DEG/KT/KT) (MB)    (FT/S) (FT/S)
CAPE MAY NJ      2224   78 72  180/  5/  8 1015.3
LEWES DE         2224   82 77  140/  2/  4 1015.6
15NM E FENWICK I 2250   78     190/  2/  4 1015.9R   2/ 6   2/ 6
OCEAN-CITY-INLET 2224   78 64  200/  4/  4 1016.0
44089 WALLOPS IS 2256      75                N/A     2/ 9
WACHAPREAGUE VA  2224   81 86  170/  4/  7 1015.0
THOMAS POINT MD  2300   76     350/ 15/ 18 1016.2F
GOOSES REEF MD   2242   75     280/ 29/ 39 1016.9S   1/12
COVE POINT MD    2224   84     160/ 10/ 12 1016.2
SOLOMONS ISLAND  2224   83 84  230/ 10/ 12 1014.7
BISHOPS HEAD MD  2224   87 90  230/  7/  9 1016.3
PINEY POINT MD   2224          260/  5/  8   N/A
POTOMAC MD       2242   79 86  260/ 10/ 16   N/A
CAMBRIDGE MD     2224   85 89  210/  3/  6 1015.4
LEWISETTA VA     2224   80 87  270/ 10/ 12 1016.4
RAPPAHANNOCK LGT 2224          270/ 13/ 14 1016.5
STINGRAY PT      2242   77 85  250/  4/  6   N/A
YORK RVR RNG VA  2224   80     210/ 13/ 15 1016.1
YORKTOWN VA      2224   75 84  220/  9/ 12 1016.0
JAMESTOWN VA     2248   76     150/ 10/ 14   N/A     1
DOMINION TERM VA 2224   77     200/ 11/ 17 1016.3
KIPTOPEKE VA     2224      86  200/  9/ 12   N/A
CHES BAY BRIDGE  2224   79     230/ 12/ 15 1015.2
CAPE HENRY VA    2224   76     220/  7/ 13 1016.5
WILLOUBY STN VA  2224   78     200/ 13/ 16 1016.1
S CRANEY ISL VA  2224   77     210/ 10/ 16 1015.8
CAPE HENRY BUOY  2256      74                N/A     2/ 8
1ST LANDING BUOY 2248   71     250/ 10/ 14 1017.9R
64NM E OF VA BCH 2250      83  250/ 16/ 19 1014.9F
DUCK PIER NC     2224      62  350/ 12/ 19 1016.1
44100 DUCK FRF   2256      70                N/A     3/ 6
44056 DUCK FRF   2256      66                N/A     2/ 8
OREGON INLET NC  2218   86 88  220/ 19/ 22 1016.3
HATTERAS NC      2224   83 84  220/ 10/ 13 1017.8
DIAMOND SHLS NC  2240      85  230/ 19/ 21 1016.9F
CAPE LOOKOUT NC  2200   84     220/ 14/ 19 1017.2F
$$


ASUS41 KAKQ 102315
RWRAKQ

REGIONAL WEATHER ROUNDUP
NATIONAL WEATHER SERVICE WAKEFIELD VA
700 PM EDT WED AUG 10 2022

Note: "fair" indicates few or no clouds below 12,000 feet with no
significant weather and/or obstructions to visibility. * = Denotes
station may not report precipitation (e.g., rain,snow,etc.),
thunder or fog.

VAZ042-051-052>054-056-110000-
NORTHERN VIRGINIA

CITY           SKY/WX    TMP DP  RH WIND       PRES   REMARKS
WASH NATIONAL  TSTM      76  73  91 S8        30.05R
DULLES         TSTM      73  71  93 S6        30.04R FOG
FORT BELVOIR   TSTM      73  72  94 CALM      30.03S
QUANTICO       TSTM      76  70  82 S6        30.05S
FREDERICKSBRG* RAIN      72  72 100 E5        30.02F
STAFFORD*      RAIN      72  69  91 CALM      30.08S
WARRENTON      TSTM      72  69  91 SW3       30.02R
CULPEPER*      TSTM      72  71  95 CALM      30.06R
MANASSAS*      RAIN      72  70  93 S5        30.05R
LEESBURG*      TSTM      73  72  94 S5        30.06R
WINCHESTER     PTSUNNY   70  70 100 CALM      30.04R
FRONT ROYAL*   FAIR      73  72  94 S5        30.04R
LURAY*         FAIR      72  70  94 CALM      30.06S
$$

VAZ048-049-060>072-079>083-110000-
CENTRAL AND SOUTH CENTRAL VIRGINIA

CITY           SKY/WX    TMP DP  RH WIND       PRES   REMARKS
RICHMOND       TSTM      73  70  90 W8        30.11R VSB 1
CHESTERFIELD*  TSTM      72 N/A N/A E10       30.10F
PETERSBURG*    HVY RAIN  73  71  93 NE6       30.11R
HANOVER        TSTM      72  72 100 CALM      30.07F FOG
TAPPAHANNOCK*  LGT RAIN  76  76 100 NW8       30.07R
QUINTON*       MOCLDY    77  74  88 W3        30.08R
CHARLOTTSVILLE LGT RAIN  77  70  78 N5        30.04R
GORDONSVILLE*  FAIR      74  72  93 CALM      30.05R
ORANGE*        TSTM      72  72 100 CALM      30.06S
LOUISA*        PTSUNNY   70 N/A N/A E3        30.05R
BUMPASS*       NOT AVBL
FARMVILLE*     PTSUNNY   83  73  72 CALM      29.99F
CREWE*         FAIR      73  70  91 CALM      30.03R
FORT PICKETT*  FAIR      75  74  99 CALM      30.04F
CHASE CITY*    FAIR      75  71  85 CALM      30.04R
CLARKSVILLE*   FAIR      73  73 100 N3        30.03R
SOUTH HILL*    NOT AVBL
LAWRENCEVILLE* FAIR      78  71  79 NW6       30.03R
EMPORIA*       PTSUNNY   81  70  70 NW12G22   30.05R THUNDER
$$

VAZ088>098-110000-
SOUTHEAST VIRGINIA

CITY           SKY/WX    TMP DP  RH WIND       PRES   REMARKS
NORFOLK        RAIN      76  72  87 SW6       30.03R
VIRGINIA BEACH TSTM      74  71  91 W10       30.01R
NORFOLK NAVAL  PTSUNNY   76  72  87 SW8       30.05R THUNDER
WEST POINT*    NOT AVBL
SALUDA*          N/A    N/A N/A N/A MISG        N/A
NEWPORT NEWS   LGT RAIN  75  73  93 S5        30.03R
LANGLEY AFB    DRIZZLE   77  76  99 SW7       30.02R
FORT EUSTIS    LGT RAIN  77  72  83 S3        30.01R
WILLIAMSBURG*  NOT AVBL
HR EXEC AP*    TSTM     N/A N/A N/A SW6       30.03F
FRANKLIN*      TSTM      76  66  71 CALM      30.01F
US460-WAKEFLD  PTSUNNY   75  72  90 W5        30.06R
$$

VAZ020-022-025-037-045-110000-
WEST CENTRAL AND SOUTHWEST VIRGINIA

CITY           SKY/WX    TMP DP  RH WIND       PRES   REMARKS
STAUNTON*      PTSUNNY   69  68  98 S3        30.09S
WAYNESBORO*    FAIR      69  69 100 MISG      30.09R
HOT SPRINGS VA CLOUDY   N/A N/A N/A N7        30.20F FOG
LYNCHBURG      MOSUNNY   83  71  67 W5        30.03F
DANVILLE       MOSUNNY   75  72  90 SW5       30.04F
BROOKNEAL*     NOT AVBL
SOUTH BOSTON*  FAIR      75  71  88 SE3       30.04S
MARTINSVILLE   MOSUNNY   81  72  74 W6        30.08F
ROANOKE        MOSUNNY   81  72  74 W6        30.07F
BLACKSBURG     MOSUNNY   77  75  92 CALM      30.15F
DUBLIN*        MOSUNNY   77  70  78 W8        30.14F
MARION*        TSTM      66  64  94 W16G24    30.23R
HILLSVILLE*    NOT AVBL
RICHLANDS*     NOT AVBL
WISE*          RAIN      64  64 100 SW6       30.23F
ABINGDON*      NOT AVBL
$$

MDZ021>025-VAZ099-100-110000-
SOUTHERN MARYLAND AND THE DELMARVA PENINSULA

CITY           SKY/WX    TMP DP  RH WIND       PRES   REMARKS
PATUXENT RIVER TSTM      78  69  73 W25G43    30.05R
BAY BRIDGE APT NOT AVBL
LEONARDTOWN    CLOUDY    77  70  78 W18G31    30.10R
DOVER          LGT RAIN  81  75  83 S6        29.98R
GEORGETOWN     PTSUNNY   86  75  69 S5        29.99R HX  95
EASTON         PTSUNNY   79  70  73 CALM      30.05R
CAMBRIDGE      NOT AVBL
SALISBURY      PTSUNNY   86  75  69 S7        29.99R HX  95
TANGIER        NOT AVBL
OCEAN CITY     NOT AVBL
WALLOPS ISLAND PTSUNNY   83  75  77 SW3       30.01R
ACCOMACK*      NOT AVBL
$$

NCZ012>017-030>032-110000-
NORTH CENTRAL AND EASTERN NORTH CAROLINA

CITY           SKY/WX    TMP DP  RH WIND       PRES   REMARKS
ROANOKE RAPIDS MOCLDY    86  77  74 W13G20    30.01R HX  97
RALEIGH        CLOUDY    83  72  69 CALM      30.04R
ELIZABETH CITY PTSUNNY   80  69  69 NW17      30.03S
AHOSKIE*       PTSUNNY   85  69  58 NE13G20   30.02R
EDENTON*       PTSUNNY   89  76  65 NE10G17   30.04R HX  99
CURRITUCK*     PTSUNNY   78  68  72 W5        30.01F
KILL DEVIL HLS LGT RAIN  76  71  85 NE6       30.02R
MANTEO         CLOUDY    84  75  74 NE9       30.03R
CAPE HATTERAS  SUNNY     83  78  85 SW13      30.04S
TARBORO*       FAIR      90  71  53 SW3       29.99S HX  96
GOLDSBORO      PTSUNNY   93  63  36 S15       29.99S
WASHINGTON     MOSUNNY   91  66  43 S3        30.01S
GREENVILLE     PTSUNNY   91  68  46 SW5       30.00R HX  95
NEW BERN       SUNNY     89  74  60 SW9G17    30.03S HX  98
WILMINGTON     SUNNY     90  72  55 SW15G21   30.06R HX  97
$$

VAZ048-110000-
ELSEWHERE

CITY           SKY/WX    TMP DP  RH WIND       PRES   REMARKS
HARRISBURG PA  PTSUNNY   84  66  54 W6        29.98S
BALTIMORE      TSTM      73  70  90 SW10      30.01S FOG
ANNAPOLIS      LGT RAIN  74  69  85 VRB3      30.00F
ANDREWS AFB    TSTM      72  71  97 S8        30.02F
PHILADELPHIA   PTSUNNY   89  69  51 SW7       29.97S
HENDERSON NC   PTSUNNY   75  69  79 CALM      30.05R
GREENSBORO     PTSUNNY   83  71  67 W12       30.07F THUNDER
ROCKY MOUNT    PTSUNNY   92  67  43 SW6       30.01R THUNDER HX  95
$$

VAZ100-110000-
MARINE

STATION/POSITION TIME  TEMP    WIND        PRES    WAVE   SWELL
                       AIR SEA DIR/SP/G            HT/PER HT/PER
                 (UTC) (F)     (DEG/KT/KT) (MB)    (FT/S) (FT/S)
CAPE MAY NJ      2224   78 72  180/  5/  8 1015.3
LEWES DE         2224   82 77  140/  2/  4 1015.6
15NM E FENWICK I 2250   78     190/  2/  4 1015.9R   2/ 6   2/ 6
OCEAN-CITY-INLET 2224   78 64  200/  4/  4 1016.0
44089 WALLOPS IS 2256      75                N/A     2/ 9
WACHAPREAGUE VA  2224   81 86  170/  4/  7 1015.0
THOMAS POINT MD  2300   76     350/ 15/ 18 1016.2F
GOOSES REEF MD   2242   75     280/ 29/ 39 1016.9S   1/12
COVE POINT MD    2224   84     160/ 10/ 12 1016.2
SOLOMONS ISLAND  2224   83 84  230/ 10/ 12 1014.7
BISHOPS HEAD MD  2224   87 90  230/  7/  9 1016.3
PINEY POINT MD   2224          260/  5/  8   N/A
POTOMAC MD       2242   79 86  260/ 10/ 16   N/A
CAMBRIDGE MD     2224   85 89  210/  3/  6 1015.4
LEWISETTA VA     2224   80 87  270/ 10/ 12 1016.4
RAPPAHANNOCK LGT 2224          270/ 13/ 14 1016.5
STINGRAY PT      2242   77 85  250/  4/  6   N/A
YORK RVR RNG VA  2224   80     210/ 13/ 15 1016.1
YORKTOWN VA      2224   75 84  220/  9/ 12 1016.0
JAMESTOWN VA     2248   76     150/ 10/ 14   N/A     1
DOMINION TERM VA 2224   77     200/ 11/ 17 1016.3
KIPTOPEKE VA     2224      86  200/  9/ 12   N/A
CHES BAY BRIDGE  2224   79     230/ 12/ 15 1015.2
CAPE HENRY VA    2224   76     220/  7/ 13 1016.5
WILLOUBY STN VA  2224   78     200/ 13/ 16 1016.1
S CRANEY ISL VA  2224   77     210/ 10/ 16 1015.8
CAPE HENRY BUOY  2256      74                N/A     2/ 8
1ST LANDING BUOY 2248   71     250/ 10/ 14 1017.9R
64NM E OF VA BCH 2250      83  250/ 16/ 19 1014.9F
DUCK PIER NC     2224      62  350/ 12/ 19 1016.1
44100 DUCK FRF   2256      70                N/A     3/ 6
44056 DUCK FRF   2256      66                N/A     2/ 8
OREGON INLET NC  2218   86 88  220/ 19/ 22 1016.3
HATTERAS NC      2224   83 84  220/ 10/ 13 1017.8
DIAMOND SHLS NC  2240      85  230/ 19/ 21 1016.9F
CAPE LOOKOUT NC  2200   84     220/ 14/ 19 1017.